Location: Cabeza de los Veneras
(40.2000°N, 5.2000°W)
Time: 02:34:53
(UTC+00:00)

Cosmos 2263 Rocket - Pass Details

Date: 18 April 2024
Orbit: 824 x 846 km, 71.0° (Epoch: 25 May)

Event Time Altitude Azimuth Distance (km) Brightness Sun altitude
Rises 20:58:16 0° 353° (N) 3,390 6.0 -20.6°
Reaches altitude 10° 21:02:54 10° 28° (NNE) 2,445 4.7 -21.3°
Maximum altitude 21:04:30 11° 45° (NE) 2,360 4.4 -21.5°
Enters shadow 21:05:52 10° 59° (ENE) 2,418 4.4 -21.7°
